[[{"header":{"parameterUnit":"m.s-1","parameterCategory":2,"la1":30.2991,"la2":30.254,"lo1":-89.0895,"lo2":-89.0444,"dy":0.0017,"dx":0.0017,"nx":28,"ny":28,"refTime":"2024-06-19T21:00:00:Z","depth":"0","parameterNumber":2,"parameterNumberName":"U-component_of_CURRENTS"},"data":[0,0,0,0,0,0,0,0,0,0,0,0,0,0,0,0,0,0,0,0,0,0,0,0,0,0,0,0,0,0,0,0,0,0,0,0,0,0,0,0,0,0,0,0,0,0,0,0,0,0,0,0,0,0,0,0,0,0,-0.3806,-0.3806,0,-0.3813,-0.3813,-0.3813,-0.3794,-0.3794,-0.3793,-0.3793,-0.3739,-0.3739,-0.3738,0,0,0,0,0,0,0,0,0,0,0,0,0,-0.3676,-0.3679,-0.3806,-0.3806,-0.3806,-0.3813,-0.3813,-0.3813,-0.3794,-0.3794,-0.3793,-0.3792,-0.374,-0.3739,-0.3737,0,0,0,0,0,0,0,0,0,0,0,0,0,-0.3712,-0.368,-0.3806,-0.3798,-0.3798,-0.3813,-0.3813,-0.3813,-0.3794,-0.3794,-0.3793,-0.3792,-0.374,-0.3739,-0.3737,-0.3744,0,0,-0.3733,-0.3732,0,0,0,0,0,0,0,0,-0.371,-0.3717,-0.3799,-0.3799,-0.3798,-0.3802,-0.3747,-0.3787,-0.3795,-0.3795,-0.3793,-0.3792,-0.3756,-0.3753,-0.3756,-0.3741,-0.3739,-0.3733,-0.3732,-0.3731,-0.3731,0,0,0,0,0,0,0,-0.3708,-0.3716,-0.3808,-0.3799,-0.3799,-0.376,-0.3765,-0.3754,-0.3778,-0.3795,-0.3794,-0.3796,-0.3755,-0.3757,-0.3754,-0.3738,-0.3733,-0.3732,-0.3731,-0.373,-0.3694,-0.3694,0,0,0,0,0,0,-0.3715,-0.3714,-0.3807,-0.3808,-0.3752,-0.3763,-0.3769,-0.3801,-0.3779,-0.3776,-0.3796,-0.3795,-0.376,-0.3756,-0.3752,-0.3732,-0.3731,-0.373,-0.3729,-0.3694,-0.3694,-0.3694,0,0,0,0,0,0,-0.3713,-0.3725,-0.3807,-0.3759,-0.3767,-0.3767,-0.3803,-0.3802,-0.38,-0.3781,-0.3776,-0.3795,-0.3759,-0.3754,-0.3739,-0.3731,-0.3729,-0.3728,-0.3695,-0.3694,-0.3694,-0.3708,0,0,0,0,0,0,-0.371,-0.3725,-0.3746,-0.3761,-0.377,-0.3807,-0.3804,-0.3802,-0.3803,-0.3801,-0.3779,-0.3773,-0.3759,-0.3741,-0.3737,-0.3729,-0.3727,-0.3695,-0.3694,-0.3694,-0.3708,-0.3708,-0.3709,0,0,0,0,0,-0.3706,-0.3719,-0.3748,-0.3758,-0.3803,-0.3807,-0.3808,-0.3803,-0.3804,-0.3799,-0.3788,-0.3774,-0.3737,-0.374,-0.3736,-0.3726,-0.3695,-0.3695,-0.3694,-0.3707,-0.3708,-0.3709,0,0,0,0,0,0,-0.365,-0.372,-0.3751,-0.3782,-0.3798,-0.3804,-0.3792,-0.3805,-0.3796,-0.3789,-0.3776,-0.377,-0.375,-0.374,-0.3744,-0.3715,-0.3712,-0.3711,-0.3723,-0.3724,-0.3724,-0.3683,-0.3726,0,0,0,0,0,-0.3661,-0.3696,-0.3746,-0.3761,-0.3775,-0.3792,-0.3792,-0.3798,-0.3795,-0.379,-0.3778,-0.3762,-0.3748,-0.3738,-0.372,-0.3711,-0.3655,-0.3701,-0.3701,-0.3702,-0.3666,-0.3597,-0.3588,-0.3693,-0.3693,-0.3693,0,0,-0.3631,-0.3679,-0.3692,-0.3753,-0.3763,-0.377,-0.3788,-0.3787,-0.3784,-0.3785,-0.3764,-0.3761,-0.3745,-0.3729,-0.3719,-0.3719,-0.3642,-0.3701,-0.3702,-0.3664,-0.3596,-0.3585,-0.3576,-0.3693,-0.3693,-0.3693,0,0,-0.3573,-0.3648,-0.3651,-0.3679,-0.3713,-0.374,-0.3744,-0.3764,-0.3765,-0.3764,-0.3758,-0.3747,-0.3733,-0.3715,-0.3707,-0.37,-0.3646,-0.3704,-0.3674,-0.361,-0.36,-0.3591,-0.3501,-0.3483,-0.3707,-0.3707,-0.3707,0,-0.3531,-0.3553,-0.3641,-0.365,-0.3643,-0.3727,-0.3698,-0.3737,-0.3744,-0.3726,-0.3751,-0.3715,-0.3718,-0.3681,-0.3686,-0.3698,-0.3642,-0.3677,-0.3609,-0.3598,-0.3588,-0.3498,-0.3479,-0.3708,-0.3708,-0.3708,-0.3707,0,-0.347,-0.3491,-0.3484,-0.3541,-0.3564,-0.3544,-0.3619,-0.364,-0.3667,-0.3683,-0.3657,-0.3675,-0.3637,-0.3663,-0.3676,-0.3614,-0.359,-0.3617,-0.3604,-0.3578,-0.3486,-0.3465,-0.3709,-0.3708,-0.3708,-0.3708,0,0,-0.333,-0.342,-0.3411,-0.3405,-0.349,-0.3486,-0.3522,-0.3535,-0.3518,-0.3574,-0.3516,-0.3551,-0.3562,-0.3551,-0.3577,-0.3549,-0.3456,-0.3555,-0.3551,-0.3457,-0.328,-0.3209,-0.3179,-0.3472,-0.3468,-0.3466,-0.3242,0,-0.3224,-0.3203,-0.3283,-0.324,-0.3222,-0.3323,-0.3335,-0.3381,-0.3422,-0.3411,-0.3465,-0.3431,-0.3525,-0.3496,-0.3492,-0.3467,-0.3401,-0.3511,-0.3324,-0.3317,-0.325,-0.3152,-0.3042,-0.2828,-0.3222,-0.3218,-0.3216,0,-0.3113,-0.3109,-0.3046,-0.3069,-0.3067,-0.3069,-0.3076,-0.3102,-0.3166,-0.319,-0.3215,-0.326,-0.3256,-0.3327,-0.3263,-0.3328,-0.3279,-0.3269,-0.326,-0.3163,-0.3205,-0.2919,-0.2775,-0.2774,-0.3183,-0.3185,-0.3188,0,-0.2928,-0.2935,-0.2866,-0.2873,-0.2931,-0.2904,-0.2933,-0.3,-0.3007,-0.3034,-0.3028,-0.3058,-0.3045,-0.3033,-0.3076,-0.3136,-0.298,-0.3053,-0.2926,-0.292,-0.2768,-0.2754,-0.2587,-0.2926,-0.2927,-0.2927,-0.2928,0,-0.2769,-0.2711,-0.277,-0.2725,-0.2647,-0.2737,-0.2673,-0.2729,-0.2774,-0.2772,-0.2883,-0.2875,-0.2968,-0.2945,-0.2975,-0.2882,-0.2888,-0.286,-0.284,-0.2771,-0.2761,-0.271,-0.2766,-0.2919,-0.2921,-0.2923,-0.2924,0,-0.259,-0.2621,-0.2551,-0.2563,-0.2563,-0.2507,-0.2547,-0.2529,-0.2581,-0.2579,-0.2581,-0.2684,-0.2657,-0.2724,-0.268,-0.2711,-0.2596,-0.2602,-0.2511,-0.2483,-0.2382,-0.2444,-0.2205,-0.2147,-0.2396,-0.2393,-0.239,0,-0.2499,-0.2445,-0.243,-0.2399,-0.2396,-0.2353,-0.2351,-0.2418,-0.2431,-0.2477,-0.2471,-0.2447,-0.2449,-0.2367,-0.2375,-0.2318,-0.2398,-0.2195,-0.229,-0.2297,-0.2352,-0.2403,-0.2378,-0.2089,-0.2083,-0.2079,-0.2076,0,-0.2326,-0.2332,-0.2292,-0.2234,-0.2201,-0.2176,-0.2178,-0.2161,-0.2254,-0.2251,-0.225,-0.223,-0.2172,-0.2097,-0.2039,-0.2022,-0.2147,-0.2105,-0.2123,-0.2076,-0.2102,-0.2064,-0.2321,-0.2039,-0.2043,-0.2045,-0.2047,-0.2049,-0.2215,-0.2163,-0.2132,-0.2066,-0.2038,-0.1995,-0.1931,-0.1978,-0.1949,-0.1949,-0.2021,-0.197,-0.1951,-0.1848,-0.1817,-0.1731,-0.1819,-0.1737,-0.1798,-0.1839,-0.1811,-0.1974,-0.1687,-0.1689,-0.169,-0.1691,-0.1692,0,-0.2075,-0.2041,-0.1981,-0.1895,-0.1818,-0.185,-0.1823,-0.1758,-0.1698,-0.1752,-0.1727,-0.1709,-0.1611,-0.1619,-0.1543,-0.1482,-0.1473,-0.1472,-0.1526,-0.1508,-0.1625,-0.1645,-0.1322,-0.1323,-0.1323,-0.1323,-0.1323,-0.1323,-0.2001,-0.1902,-0.1873,-0.1693,-0.1641,-0.1502,-0.1456,-0.14,-0.1401,-0.1348,-0.1372,-0.1428,-0.1449,-0.1561,-0.1474,-0.1403,-0.1412,-0.133,-0.1393,-0.1525,-0.1556,-0.1587,-0.1615,-0.1292,-0.1292,-0.1204,-0.1204,-0.1203]},{"header":{"parameterUnit":"m.s-1","parameterCategory":2,"la1":30.2991,"la2":30.254,"lo1":-89.0895,"lo2":-89.0444,"dy":0.0017,"dx":0.0017,"nx":28,"ny":28,"refTime":"2024-06-19T21:00:00:Z","depth":"0","parameterNumber":3,"parameterNumberName":"V-component_of_CURRENTS"},"data":[0,0,0,0,0,0,0,0,0,0,0,0,0,0,0,0,0,0,0,0,0,0,0,0,0,0,0,0,0,0,0,0,0,0,0,0,0,0,0,0,0,0,0,0,0,0,0,0,0,0,0,0,0,0,0,0,0,0,-0.0286,-0.0283,0,-0.0043,-0.004,-0.0038,0.01,0.01,0.01,0.0101,0.0312,0.0317,0.0323,0,0,0,0,0,0,0,0,0,0,0,0,0,-0.0556,-0.0552,-0.0286,-0.0283,-0.028,-0.0044,-0.004,-0.0037,0.01,0.01,0.01,0.0101,0.031,0.0317,0.0323,0,0,0,0,0,0,0,0,0,0,0,0,0,-0.0388,-0.0551,-0.0286,-0.0185,-0.0173,-0.0044,-0.004,-0.0036,0.01,0.01,0.01,0.0101,0.0308,0.0316,0.0324,0.0364,0,0,0.0349,0.0352,0,0,0,0,0,0,0,0,-0.0397,-0.0378,-0.0203,-0.0192,-0.0179,-0.0003,-0.0058,0.0096,0.0099,-0.0002,0.0101,0.0101,0.0202,0.0219,0.0267,0.0374,0.0383,0.0349,0.0354,0.0358,0.036,0,0,0,0,0,0,0,-0.0409,-0.0387,-0.0188,-0.02,-0.0185,-0.0126,-0.0102,-0.0027,0.0095,0.0007,0.0017,0.0041,0.0209,0.0259,0.0272,0.0386,0.0349,0.0356,0.0361,0.0364,0.0528,0.0528,0,0,0,0,0,0,-0.0446,-0.0398,-0.0196,-0.0181,-0.0291,-0.0122,-0.0095,-0.0059,0.0095,0.0119,0.004,0.0046,0.0245,0.0263,0.028,0.033,0.0358,0.0365,0.037,0.0528,0.0528,0.0527,0,0,0,0,0,0,-0.0453,-0.043,-0.0206,-0.0286,-0.0254,-0.0118,-0.0078,-0.0054,-0.0007,0.0121,0.0145,0.0061,0.0246,0.0269,0.0342,0.0339,0.0369,0.0376,0.0529,0.0528,0.0528,0.0432,0,0,0,0,0,0,-0.0461,-0.0434,-0.0425,-0.0288,-0.0251,-0.0145,-0.0078,-0.005,0.0007,0.0017,0.0147,0.0168,0.0248,0.0329,0.035,0.035,0.0382,0.053,0.0529,0.0528,0.0436,0.0429,0.0422,0,0,0,0,0,-0.0472,-0.0466,-0.0426,-0.0402,-0.0241,-0.0145,-0.0121,-0.0022,0.0006,0.0022,0.011,0.0164,0.0338,0.0336,0.036,0.0363,0.053,0.0529,0.0528,0.0439,0.043,0.0422,0,0,0,0,0,0,-0.0584,-0.0447,-0.0401,-0.0355,-0.0266,-0.0123,-0.0101,-0.0036,0.0049,0.0053,0.0168,0.0195,0.0255,0.0317,0.0312,0.0404,0.0439,0.0442,0.0363,0.0355,0.0348,0.0335,0.0389,0,0,0,0,0,-0.0606,-0.0562,-0.0431,-0.0398,-0.0361,-0.0236,-0.0188,-0.0121,-0.0024,0.0015,0.0107,0.0195,0.0271,0.0317,0.0391,0.0448,0.0501,0.0461,0.0454,0.0447,0.0452,0.0524,0.0524,0.0524,0.0524,0.0524,0,0,-0.0644,-0.0563,-0.0539,-0.042,-0.0344,-0.0288,-0.0206,-0.0143,-0.0096,0.0021,0.0096,0.0172,0.0278,0.0343,0.0374,0.0396,0.0471,0.0446,0.044,0.0448,0.0523,0.0524,0.0524,0.0523,0.0523,0.0523,0,0,-0.0701,-0.0626,-0.061,-0.0533,-0.0426,-0.0344,-0.0336,-0.0203,-0.0146,-0.0067,0.0024,0.0098,0.0216,0.0302,0.0356,0.0353,0.0426,0.0365,0.0333,0.0402,0.0403,0.0404,0.0451,0.0457,0.0369,0.0368,0.0368,0,-0.0755,-0.0693,-0.0596,-0.0554,-0.0495,-0.038,-0.0348,-0.0273,-0.0134,-0.0085,-0.0066,0.0122,0.0201,0.0302,0.0301,0.0339,0.038,0.0356,0.0393,0.0396,0.0399,0.0446,0.0455,0.0364,0.0364,0.0365,0.0365,0,-0.078,-0.0729,-0.0717,-0.0616,-0.0556,-0.0506,-0.0391,-0.0335,-0.0264,-0.0171,-0.0071,0.0044,0.0159,0.0187,0.0248,0.0314,0.0335,0.0368,0.0412,0.0393,0.0444,0.0454,0.0357,0.0359,0.036,0.0361,0,0,-0.087,-0.0758,-0.0746,-0.0706,-0.0574,-0.0524,-0.0466,-0.0355,-0.0308,-0.0197,-0.0121,0.0004,0.0071,0.0136,0.0221,0.0284,0.0332,0.0327,0.0333,0.0367,0.0469,0.0483,0.0497,0.037,0.0372,0.0373,0.0487,0,-0.0904,-0.0859,-0.0783,-0.0731,-0.0687,-0.0572,-0.0521,-0.0418,-0.0324,-0.023,-0.0105,-0.001,0.0052,0.01,0.0174,0.0305,0.0358,0.0297,0.0487,0.0493,0.0505,0.0509,0.0536,0.0641,0.0498,0.05,0.0501,0,-0.0926,-0.0882,-0.0854,-0.0758,-0.0732,-0.0696,-0.0583,-0.052,-0.0373,-0.0303,-0.0187,-0.008,0.0051,0.0085,0.0289,0.0246,0.0341,0.0429,0.0436,0.0495,0.0528,0.0642,0.0666,0.0801,0.0518,0.0516,0.0515,0,-0.0998,-0.0919,-0.0902,-0.0861,-0.0751,-0.0729,-0.0673,-0.0545,-0.0487,-0.0348,-0.0293,-0.012,-0.0033,0.0117,0.0303,0.0297,0.0512,0.0532,0.0632,0.0633,0.0719,0.0725,0.0896,0.0652,0.0651,0.0651,0.0651,0,-0.1023,-0.0999,-0.094,-0.0915,-0.0893,-0.0801,-0.076,-0.068,-0.0568,-0.0493,-0.0342,-0.0247,-0.0024,0.0138,0.0291,0.0499,0.0508,0.0631,0.0671,0.0683,0.0684,0.0856,0.0898,0.0655,0.0655,0.0654,0.0653,0,-0.1078,-0.1039,-0.101,-0.0938,-0.0922,-0.0906,-0.0825,-0.0788,-0.0685,-0.0588,-0.0548,-0.0333,-0.0117,0.0102,0.0359,0.0482,0.0762,0.0739,0.0723,0.0759,0.0964,0.0997,0.119,0.1277,0.087,0.0871,0.0872,0,-0.1093,-0.1091,-0.105,-0.1046,-0.1015,-0.0983,-0.0957,-0.0856,-0.0808,-0.0626,-0.058,-0.0361,-0.0168,0.0204,0.0463,0.0733,0.0832,0.0884,0.088,0.0986,0.1055,0.1068,0.1129,0.0952,0.0954,0.0955,0.0956,0,-0.1116,-0.1119,-0.1101,-0.1106,-0.1095,-0.107,-0.1027,-0.1008,-0.0876,-0.0771,-0.0589,-0.0425,-0.0059,0.0285,0.0609,0.0766,0.0976,0.0916,0.1055,0.1155,0.1157,0.1256,0.0845,0.0967,0.0966,0.0965,0.0965,0.0964,-0.1138,-0.1149,-0.1149,-0.1149,-0.1145,-0.1141,-0.1119,-0.1058,-0.0967,-0.078,-0.0612,-0.0329,0.0135,0.0621,0.0802,0.114,0.1094,0.1233,0.127,0.1278,0.1351,0.0941,0.1087,0.1087,0.1086,0.1086,0.1086,0,-0.1149,-0.117,-0.1185,-0.1184,-0.1191,-0.1177,-0.1141,-0.1093,-0.0985,-0.0774,-0.0558,-0.0015,0.0429,0.0833,0.1313,0.1491,0.1541,0.1567,0.1616,0.1668,0.135,0.1342,0.1514,0.1514,0.1514,0.1514,0.1513,0.1513,-0.1154,-0.1185,-0.1197,-0.1216,-0.1216,-0.1204,-0.1182,-0.1095,-0.0943,-0.0595,-0.0269,0.0021,0.0582,0.1348,0.1782,0.1819,0.1985,0.1943,0.2038,0.1833,0.1805,0.1778,0.1784,0.2046,0.2047,0.2358,0.2361,0.2364]}],[{"header":{"parameterUnit":"m.s-1","parameterCategory":2,"la1":30.2991,"la2":30.254,"lo1":-89.0895,"lo2":-89.0444,"dy":0.0017,"dx":0.0017,"nx":28,"ny":28,"refTime":"2024-06-19T21:00:00:Z","depth":"2","parameterNumber":2,"parameterNumberName":"U-component_of_CURRENTS"},"data":[0,0,0,0,0,0,0,0,0,0,0,0,0,0,0,0,0,0,0,0,0,0,0,0,0,0,0,0,0,0,0,0,0,0,0,0,0,0,0,0,0,0,0,0,0,0,0,0,0,0,0,0,0,0,0,0,0,0,-0.2827,-0.2827,0,-0.2867,-0.2868,-0.2868,-0.2885,-0.2885,-0.2884,-0.2884,-0.2909,-0.291,-0.291,0,0,0,0,0,0,0,0,0,0,0,0,0,-0.2688,-0.2691,-0.2826,-0.2827,-0.2827,-0.2867,-0.2868,-0.2868,-0.2885,-0.2885,-0.2884,-0.2884,-0.2909,-0.2909,-0.291,0,0,0,0,0,0,0,0,0,0,0,0,0,-0.2741,-0.2692,-0.2826,-0.284,-0.2841,-0.2867,-0.2868,-0.2869,-0.2885,-0.2885,-0.2884,-0.2884,-0.2908,-0.2909,-0.2911,-0.2923,0,0,-0.2914,-0.2915,0,0,0,0,0,0,0,0,-0.2738,-0.2746,-0.2837,-0.2839,-0.2841,-0.287,-0.2828,-0.2886,-0.2885,-0.2869,-0.2884,-0.2884,-0.2894,-0.2896,-0.2906,-0.2924,-0.2925,-0.2914,-0.2915,-0.2916,-0.2916,0,0,0,0,0,0,0,-0.2735,-0.2744,-0.2843,-0.2838,-0.284,-0.2818,-0.2826,-0.2839,-0.2883,-0.287,-0.2872,-0.2875,-0.2895,-0.2905,-0.2906,-0.2925,-0.2914,-0.2915,-0.2916,-0.2917,-0.2947,-0.2947,0,0,0,0,0,0,-0.2733,-0.2742,-0.2842,-0.2844,-0.2787,-0.2821,-0.283,-0.2861,-0.2883,-0.2886,-0.2875,-0.2876,-0.2903,-0.2905,-0.2907,-0.2928,-0.2916,-0.2917,-0.2917,-0.2947,-0.2947,-0.2947,0,0,0,0,0,0,-0.2731,-0.2743,-0.284,-0.2791,-0.2802,-0.2824,-0.2859,-0.2862,-0.2878,-0.2887,-0.2889,-0.2888,-0.2903,-0.2906,-0.2919,-0.2928,-0.2917,-0.2918,-0.2947,-0.2947,-0.2947,-0.2965,0,0,0,0,0,0,-0.2727,-0.2743,-0.2756,-0.2792,-0.2805,-0.2847,-0.2859,-0.2863,-0.288,-0.2881,-0.2898,-0.29,-0.2903,-0.2917,-0.292,-0.293,-0.2919,-0.2947,-0.2947,-0.2947,-0.2964,-0.2965,-0.2967,0,0,0,0,0,-0.2722,-0.2725,-0.2757,-0.2768,-0.2827,-0.2847,-0.2851,-0.2865,-0.2881,-0.2881,-0.2898,-0.29,-0.292,-0.2918,-0.2922,-0.2932,-0.2947,-0.2947,-0.2947,-0.2963,-0.2965,-0.2967,0,0,0,0,0,0,-0.2666,-0.2729,-0.2764,-0.2788,-0.2819,-0.2849,-0.2846,-0.2871,-0.2887,-0.2894,-0.2905,-0.2907,-0.2912,-0.2923,-0.2921,-0.2939,-0.2932,-0.2933,-0.2943,-0.2945,-0.2946,-0.2893,-0.292,0,0,0,0,0,-0.2667,-0.2686,-0.2747,-0.2762,-0.2784,-0.2825,-0.2834,-0.2857,-0.2879,-0.2887,-0.2906,-0.2919,-0.2915,-0.2932,-0.2926,-0.2953,-0.2909,-0.2959,-0.2961,-0.2962,-0.292,-0.2883,-0.2876,-0.2948,-0.2948,-0.2948,0,0,-0.2645,-0.2681,-0.2692,-0.275,-0.2779,-0.2802,-0.2829,-0.2852,-0.2869,-0.2887,-0.2912,-0.2917,-0.2917,-0.2929,-0.2935,-0.2946,-0.2919,-0.2962,-0.2963,-0.2919,-0.2882,-0.2875,-0.2869,-0.2948,-0.2948,-0.2948,0,0,-0.2605,-0.2657,-0.2665,-0.269,-0.274,-0.2777,-0.2788,-0.2844,-0.2868,-0.2895,-0.2903,-0.2911,-0.2934,-0.2933,-0.2932,-0.294,-0.2912,-0.2955,-0.2941,-0.2908,-0.2901,-0.2894,-0.2828,-0.2815,-0.2977,-0.2977,-0.2977,0,-0.2567,-0.2601,-0.2664,-0.2675,-0.2687,-0.2768,-0.2778,-0.2817,-0.2868,-0.2872,-0.2898,-0.2899,-0.2922,-0.2907,-0.2917,-0.294,-0.2904,-0.2941,-0.2907,-0.29,-0.2893,-0.2827,-0.2812,-0.2978,-0.2977,-0.2977,-0.2977,0,-0.254,-0.2562,-0.2562,-0.2617,-0.2651,-0.2657,-0.2739,-0.2771,-0.2819,-0.2846,-0.2847,-0.2877,-0.287,-0.2897,-0.2913,-0.2885,-0.2868,-0.2898,-0.29,-0.2886,-0.2818,-0.2803,-0.2979,-0.2979,-0.2978,-0.2978,0,0,-0.2442,-0.2524,-0.2519,-0.2533,-0.2614,-0.2632,-0.268,-0.272,-0.2721,-0.2781,-0.2765,-0.2792,-0.2811,-0.2809,-0.2845,-0.2837,-0.2782,-0.2855,-0.2853,-0.2781,-0.2676,-0.2609,-0.2586,-0.2816,-0.2813,-0.2812,-0.2648,0,-0.2387,-0.2384,-0.2459,-0.2461,-0.2468,-0.2556,-0.2582,-0.2635,-0.2684,-0.2695,-0.2733,-0.2727,-0.2783,-0.2785,-0.2787,-0.2782,-0.2742,-0.282,-0.2704,-0.2698,-0.2636,-0.2567,-0.2413,-0.2249,-0.2633,-0.263,-0.2628,0,-0.2321,-0.2332,-0.2326,-0.2373,-0.2387,-0.2406,-0.2449,-0.2487,-0.2537,-0.2569,-0.2587,-0.2623,-0.2627,-0.2679,-0.2631,-0.2682,-0.2657,-0.265,-0.2645,-0.2553,-0.2603,-0.2326,-0.2206,-0.2602,-0.2604,-0.2606,-0.2608,0,-0.2197,-0.2227,-0.2215,-0.2225,-0.2306,-0.2314,-0.2356,-0.2421,-0.2444,-0.2481,-0.2483,-0.2505,-0.2506,-0.2494,-0.252,-0.2565,-0.2446,-0.2512,-0.2404,-0.2399,-0.2222,-0.2206,-0.2416,-0.2416,-0.2417,-0.2417,-0.2418,0,-0.2086,-0.2073,-0.2143,-0.2133,-0.211,-0.2208,-0.2199,-0.2248,-0.2301,-0.2308,-0.24,-0.2392,-0.2459,-0.2438,-0.2454,-0.237,-0.2389,-0.2342,-0.2338,-0.2226,-0.2212,-0.2492,-0.2503,-0.2411,-0.2412,-0.2414,-0.2415,0,-0.1955,-0.2002,-0.1986,-0.2043,-0.2056,-0.2037,-0.2109,-0.2108,-0.2169,-0.218,-0.2189,-0.2272,-0.2245,-0.2281,-0.225,-0.2258,-0.2207,-0.2164,-0.2015,-0.1996,-0.219,-0.2204,-0.2002,-0.1998,-0.1994,-0.1992,-0.1989,0,-0.1885,-0.1866,-0.19,-0.1899,-0.1924,-0.1924,-0.194,-0.2022,-0.2043,-0.2104,-0.21,-0.209,-0.2074,-0.2001,-0.199,-0.193,-0.2056,-0.1771,-0.1826,-0.2123,-0.2141,-0.216,-0.2179,-0.1595,-0.159,-0.1585,-0.1582,0,-0.1758,-0.1779,-0.1782,-0.1765,-0.1774,-0.1776,-0.1806,-0.1798,-0.1903,-0.1907,-0.1906,-0.1885,-0.1832,-0.1721,-0.1667,-0.1636,-0.1781,-0.1677,-0.1986,-0.1748,-0.1733,-0.1754,-0.1786,-0.1542,-0.1546,-0.1549,-0.1551,-0.1553,-0.1666,-0.1634,-0.1646,-0.1621,-0.1635,-0.1618,-0.1577,-0.1632,-0.1621,-0.1623,-0.1687,-0.1617,-0.162,-0.1448,-0.1384,-0.1349,-0.1475,-0.1456,-0.1472,-0.1492,-0.1499,-0.1481,-0.1241,-0.1243,-0.1245,-0.1246,-0.1248,0,-0.1537,-0.1532,-0.1508,-0.1481,-0.1444,-0.1491,-0.1488,-0.1435,-0.1385,-0.1425,-0.1399,-0.1243,-0.1165,-0.1179,-0.1051,-0.1038,-0.1051,-0.1018,-0.1048,-0.1085,-0.1119,-0.1111,-0.0748,-0.0746,-0.0745,-0.0744,0,0,-0.1477,-0.1413,-0.1397,-0.129,-0.128,-0.1187,-0.1155,-0.1104,-0.1097,-0.1018,-0.0999,-0.1098,-0.1129,-0.0945,-0.0899,-0.0805,-0.094,-0.0762,-0.1157,-0.1227,-0.126,-0.1356,-0.1383,0,0,0,0,0]},{"header":{"parameterUnit":"m.s-1","parameterCategory":2,"la1":30.2991,"la2":30.254,"lo1":-89.0895,"lo2":-89.0444,"dy":0.0017,"dx":0.0017,"nx":28,"ny":28,"refTime":"2024-06-19T21:00:00:Z","depth":"2","parameterNumber":3,"parameterNumberName":"V-component_of_CURRENTS"},"data":[0,0,0,0,0,0,0,0,0,0,0,0,0,0,0,0,0,0,0,0,0,0,0,0,0,0,0,0,0,0,0,0,0,0,0,0,0,0,0,0,0,0,0,0,0,0,0,0,0,0,0,0,0,0,0,0,0,0,-0.0306,-0.0304,0,-0.011,-0.0108,-0.0106,0.0005,0.0005,0.0006,0.0006,0.0201,0.0205,0.021,0,0,0,0,0,0,0,0,0,0,0,0,0,-0.0508,-0.0505,-0.0306,-0.0304,-0.0302,-0.0111,-0.0108,-0.0105,0.0005,0.0005,0.0006,0.0006,0.0199,0.0205,0.0211,0,0,0,0,0,0,0,0,0,0,0,0,0,-0.0376,-0.0504,-0.0307,-0.0225,-0.0215,-0.0111,-0.0108,-0.0104,0.0005,0.0005,0.0006,0.0006,0.0197,0.0204,0.0212,0.025,0,0,0.0234,0.0238,0,0,0,0,0,0,0,0,-0.0383,-0.0368,-0.0239,-0.023,-0.022,-0.0078,-0.0107,0.0014,0.0005,-0.0077,0.0006,0.0006,0.0106,0.0121,0.0159,0.026,0.0268,0.0235,0.024,0.0243,0.0245,0,0,0,0,0,0,0,-0.0393,-0.0376,-0.0227,-0.0237,-0.0225,-0.0171,-0.0153,-0.0083,0.0011,-0.007,-0.0062,-0.0042,0.0112,0.0152,0.0165,0.0271,0.0235,0.0241,0.0246,0.0249,0.0418,0.0418,0,0,0,0,0,0,-0.0424,-0.0385,-0.0233,-0.0221,-0.0304,-0.0169,-0.0148,-0.0123,0.0011,0.0031,-0.0043,-0.0038,0.0139,0.0156,0.0172,0.0233,0.0243,0.025,0.0254,0.0418,0.0418,0.0418,0,0,0,0,0,0,-0.0429,-0.0412,-0.0241,-0.03,-0.0275,-0.0166,-0.0138,-0.0119,-0.0079,0.0031,0.0052,-0.0024,0.014,0.0161,0.0233,0.024,0.0253,0.026,0.0418,0.0418,0.0418,0.0349,0,0,0,0,0,0,-0.0435,-0.0415,-0.0413,-0.0302,-0.0273,-0.0188,-0.0138,-0.0115,-0.0068,-0.006,0.0054,0.0073,0.0142,0.0222,0.0241,0.0251,0.0266,0.0418,0.0418,0.0418,0.0351,0.0347,0.0343,0,0,0,0,0,-0.0443,-0.044,-0.0414,-0.0396,-0.0271,-0.0189,-0.0169,-0.0089,-0.0068,-0.0052,0.0025,0.007,0.0235,0.0228,0.025,0.0263,0.0418,0.0418,0.0418,0.0353,0.0348,0.0343,0,0,0,0,0,0,-0.0527,-0.0425,-0.0394,-0.0361,-0.0287,-0.0171,-0.015,-0.0099,-0.0024,-0.002,0.0078,0.0103,0.0164,0.022,0.0209,0.0309,0.0331,0.0335,0.0274,0.027,0.0265,0.0246,0.0272,0,0,0,0,0,-0.0547,-0.0516,-0.0414,-0.039,-0.0359,-0.026,-0.022,-0.0165,-0.0083,-0.0049,0.0034,0.0114,0.0183,0.0229,0.0296,0.0358,0.04,0.0377,0.0372,0.0368,0.0367,0.0437,0.0439,0.0418,0.0418,0.0418,0,0,-0.0574,-0.0514,-0.0498,-0.0406,-0.0344,-0.0298,-0.0234,-0.0179,-0.0138,-0.0041,0.0032,0.01,0.0193,0.026,0.0293,0.031,0.0393,0.0369,0.0365,0.0365,0.0437,0.0439,0.0441,0.0418,0.0418,0.0418,0,0,-0.0615,-0.0561,-0.0551,-0.0489,-0.0404,-0.0337,-0.0329,-0.0218,-0.0169,-0.0095,-0.0019,0.0053,0.0163,0.0242,0.0291,0.0303,0.036,0.0316,0.0295,0.0363,0.0365,0.0368,0.0406,0.0413,0.0324,0.0324,0.0324,0,-0.0653,-0.0613,-0.0538,-0.0505,-0.0458,-0.0363,-0.0337,-0.027,-0.015,-0.0108,-0.0089,0.008,0.0157,0.0251,0.0258,0.0295,0.0329,0.0307,0.0357,0.036,0.0364,0.0404,0.0412,0.0321,0.0321,0.0322,0.0322,0,-0.0675,-0.0639,-0.0627,-0.0551,-0.0501,-0.0456,-0.036,-0.0309,-0.0248,-0.0169,-0.0076,0.0032,0.0134,0.0168,0.0222,0.0291,0.0303,0.0334,0.0366,0.0362,0.0404,0.0414,0.0316,0.0317,0.0318,0.0319,0,0,-0.0745,-0.0661,-0.0652,-0.0624,-0.0514,-0.0472,-0.0417,-0.0324,-0.0284,-0.018,-0.0115,0.0008,0.0067,0.0125,0.0205,0.0271,0.0326,0.0308,0.0313,0.0339,0.0453,0.0458,0.0469,0.0364,0.0365,0.0367,0.0464,0,-0.0774,-0.0743,-0.0684,-0.0643,-0.061,-0.0512,-0.0464,-0.0375,-0.0293,-0.0207,-0.0092,-0.0006,0.0052,0.0098,0.0173,0.0295,0.0351,0.0296,0.046,0.0464,0.0464,0.0481,0.0443,0.0527,0.0474,0.0476,0.0477,0,-0.0798,-0.0767,-0.075,-0.0672,-0.0652,-0.0621,-0.0525,-0.0469,-0.0336,-0.0273,-0.017,-0.0075,0.0052,0.0087,0.0279,0.0238,0.0331,0.0416,0.0422,0.046,0.0488,0.0528,0.0547,0.0494,0.0493,0.0491,0.049,0,-0.0866,-0.0803,-0.0796,-0.0762,-0.0672,-0.0655,-0.0606,-0.0493,-0.0441,-0.0315,-0.0265,-0.0109,-0.0026,0.0114,0.0291,0.0287,0.0488,0.0509,0.0596,0.0597,0.0615,0.0614,0.0626,0.0626,0.0626,0.0625,0.0625,0,-0.0893,-0.0878,-0.0832,-0.0818,-0.08,-0.0723,-0.0689,-0.0616,-0.0515,-0.0448,-0.031,-0.0224,-0.0017,0.0132,0.0278,0.0468,0.0481,0.0594,0.0631,0.0587,0.0583,0.0598,0.0594,0.0629,0.0628,0.0627,0.0627,0,-0.0946,-0.0919,-0.0902,-0.0845,-0.0832,-0.082,-0.0749,-0.0716,-0.0622,-0.0535,-0.0499,-0.0301,-0.0104,0.0097,0.0338,0.0448,0.063,0.0687,0.0606,0.0631,0.0691,0.0682,0.0795,0.0796,0.0797,0.0798,0.0798,0,-0.0961,-0.0967,-0.0939,-0.094,-0.0917,-0.0891,-0.0869,-0.0779,-0.0736,-0.057,-0.0528,-0.0329,-0.0155,0.0185,0.0415,0.0659,0.0668,0.0739,0.0732,0.0688,0.0713,0.0702,0.0691,0.0723,0.0723,0.0723,0.0723,0,-0.0984,-0.0991,-0.0982,-0.0993,-0.0988,-0.0969,-0.0932,-0.0916,-0.0799,-0.0703,-0.0538,-0.0391,-0.0065,0.0213,0.0502,0.0636,0.0698,0.0746,0.0753,0.0677,0.0627,0.0648,0.0639,0.0723,0.0723,0.0723,0.0723,0.0723,-0.0999,-0.1011,-0.1021,-0.1026,-0.1029,-0.103,-0.1012,-0.0959,-0.0879,-0.0712,-0.0564,-0.0317,-0.0059,0.037,0.0569,0.0734,0.0748,0.0785,0.0783,0.0781,0.0747,0.0701,0.0802,0.0803,0.0803,0.0803,0.0804,0,-0.0999,-0.1027,-0.1045,-0.1054,-0.1065,-0.1058,-0.1031,-0.0987,-0.0892,-0.0711,-0.052,-0.0217,0.0094,0.0345,0.0618,0.0785,0.0768,0.0791,0.0743,0.0742,0.0742,0.0704,0.0749,0.075,0.075,0.075,0,0,-0.0999,-0.1031,-0.1046,-0.1072,-0.1082,-0.1076,-0.1059,-0.0982,-0.085,-0.0657,-0.0467,-0.0194,0.0116,0.0299,0.0508,0.0637,0.0639,0.0635,0.0662,0.058,0.0577,0.0723,0.0662,0,0,0,0,0]}],[{"header":{"parameterUnit":"m.s-1","parameterCategory":2,"la1":30.2991,"la2":30.254,"lo1":-89.0895,"lo2":-89.0444,"dy":0.0017,"dx":0.0017,"nx":28,"ny":28,"refTime":"2024-06-19T21:00:00:Z","depth":"4","parameterNumber":2,"parameterNumberName":"U-component_of_CURRENTS"},"data":[0,0,0,0,0,0,0,0,0,0,0,0,0,0,0,0,0,0,0,0,0,0,0,0,0,0,0,0,0,0,0,0,0,0,0,0,0,0,0,0,0,0,0,0,0,0,0,0,0,0,0,0,0,0,0,0,0,0,-0.1301,-0.1302,0,-0.1358,-0.1358,-0.1358,-0.1422,-0.1424,-0.1425,-0.1426,-0.1523,-0.1524,-0.1526,0,0,0,0,0,0,0,0,0,0,0,0,0,-0.1236,-0.1236,-0.1301,-0.1302,-0.1303,-0.1358,-0.1358,-0.1358,-0.1422,-0.1424,-0.1425,-0.1427,-0.1523,-0.1524,-0.1526,0,0,0,0,0,0,0,0,0,0,0,0,0,-0.1272,-0.1237,-0.1301,-0.1344,-0.1349,-0.1358,-0.1358,-0.1359,-0.1422,-0.1424,-0.1426,-0.1427,-0.1522,-0.1524,-0.1526,-0.1501,0,0,-0.1533,-0.1534,0,0,0,0,0,0,0,0,-0.127,-0.1274,-0.1337,-0.1341,-0.1346,-0.1388,-0.1371,-0.1409,-0.1421,-0.139,-0.1426,-0.1428,-0.1483,-0.1488,-0.1489,-0.1505,-0.151,-0.1533,-0.1534,-0.1535,-0.1536,0,0,0,0,0,0,0,-0.1267,-0.1272,-0.132,-0.1338,-0.1344,-0.1357,-0.1364,-0.1378,-0.1423,-0.1393,-0.1399,-0.141,-0.1485,-0.1486,-0.1492,-0.1511,-0.1533,-0.1535,-0.1536,-0.1537,-0.1634,-0.1635,0,0,0,0,0,0,-0.1266,-0.1269,-0.1318,-0.1322,-0.1316,-0.1357,-0.1364,-0.137,-0.1422,-0.1433,-0.1408,-0.1413,-0.1482,-0.1489,-0.1495,-0.1574,-0.1535,-0.1537,-0.1538,-0.1633,-0.1634,-0.1636,0,0,0,0,0,0,-0.1264,-0.1269,-0.1316,-0.13,-0.1308,-0.1356,-0.1362,-0.137,-0.1415,-0.1434,-0.1445,-0.1451,-0.1484,-0.1493,-0.1544,-0.1574,-0.1538,-0.154,-0.1631,-0.1633,-0.1635,-0.1663,0,0,0,0,0,0,-0.1262,-0.1268,-0.1274,-0.13,-0.1309,-0.1347,-0.136,-0.137,-0.1419,-0.1426,-0.1473,-0.1482,-0.1486,-0.1541,-0.1546,-0.1576,-0.1541,-0.1629,-0.1632,-0.1634,-0.166,-0.1665,-0.167,0,0,0,0,0,-0.1259,-0.1255,-0.1274,-0.128,-0.1314,-0.1348,-0.1354,-0.1392,-0.1419,-0.144,-0.1476,-0.1482,-0.1561,-0.1543,-0.1549,-0.1581,-0.1628,-0.1631,-0.1634,-0.1658,-0.1664,-0.167,0,0,0,0,0,0,-0.1235,-0.1262,-0.1283,-0.129,-0.1332,-0.1361,-0.1383,-0.1412,-0.1455,-0.1474,-0.1494,-0.1505,-0.156,-0.1567,-0.1548,-0.1617,-0.1597,-0.1601,-0.1613,-0.162,-0.1624,-0.161,-0.1543,0,0,0,0,0,-0.123,-0.1239,-0.1276,-0.129,-0.1312,-0.1356,-0.1378,-0.141,-0.1449,-0.1471,-0.1506,-0.1541,-0.1566,-0.1593,-0.1613,-0.165,-0.163,-0.1677,-0.1682,-0.1686,-0.1679,-0.1662,-0.1664,-0.1645,-0.1645,-0.1645,0,0,-0.123,-0.1245,-0.1254,-0.1287,-0.1323,-0.136,-0.1375,-0.1424,-0.1462,-0.1473,-0.154,-0.156,-0.158,-0.1621,-0.1647,-0.1639,-0.1684,-0.169,-0.1693,-0.1684,-0.1665,-0.1667,-0.1668,-0.1647,-0.1647,-0.1647,0,0,-0.1233,-0.1249,-0.1263,-0.1295,-0.1352,-0.1379,-0.1405,-0.146,-0.1494,-0.1551,-0.1566,-0.1599,-0.1658,-0.1662,-0.1674,-0.1717,-0.1707,-0.1745,-0.1762,-0.1746,-0.1747,-0.1747,-0.1731,-0.1729,-0.1751,-0.1751,-0.1751,0,-0.1229,-0.125,-0.1277,-0.1304,-0.1336,-0.1397,-0.1434,-0.1471,-0.1538,-0.1557,-0.1585,-0.1646,-0.1668,-0.1692,-0.1716,-0.1726,-0.172,-0.1737,-0.175,-0.175,-0.175,-0.1732,-0.173,-0.1753,-0.1753,-0.1752,-0.1752,0,-0.1244,-0.1272,-0.1289,-0.1342,-0.1381,-0.1421,-0.1481,-0.1532,-0.1587,-0.161,-0.1662,-0.1684,-0.1714,-0.1735,-0.1745,-0.1762,-0.176,-0.1752,-0.1728,-0.1753,-0.1734,-0.1731,-0.1755,-0.1755,-0.1754,-0.1754,0,0,-0.1197,-0.1278,-0.1287,-0.1323,-0.1402,-0.1436,-0.1506,-0.1562,-0.1603,-0.1659,-0.1694,-0.1736,-0.1743,-0.1756,-0.177,-0.1768,-0.1768,-0.1773,-0.1772,-0.1745,-0.174,-0.163,-0.1616,-0.177,-0.1769,-0.1769,-0.1729,0,-0.1202,-0.125,-0.1296,-0.1366,-0.14,-0.1474,-0.153,-0.1591,-0.1645,-0.1693,-0.1708,-0.1745,-0.1753,-0.1777,-0.1775,-0.1773,-0.1762,-0.1779,-0.1731,-0.1729,-0.1617,-0.1609,-0.1768,-0.1727,-0.1726,-0.1726,-0.1725,0,-0.1183,-0.1227,-0.128,-0.1375,-0.1399,-0.1454,-0.1547,-0.1605,-0.1671,-0.1712,-0.1741,-0.1759,-0.1772,-0.1777,-0.176,-0.1778,-0.1761,-0.1751,-0.1749,-0.1629,-0.1612,-0.1698,-0.172,-0.172,-0.1721,-0.1721,-0.1722,0,-0.1107,-0.1206,-0.1247,-0.1278,-0.1396,-0.1445,-0.1516,-0.1601,-0.164,-0.1716,-0.1741,-0.1763,-0.1773,-0.1762,-0.1747,-0.1763,-0.1717,-0.1725,-0.1601,-0.1594,-0.1694,-0.1694,-0.1692,-0.1692,-0.1692,-0.1692,-0.1692,0,-0.1054,-0.1096,-0.1222,-0.1241,-0.1315,-0.1412,-0.148,-0.1559,-0.1639,-0.1663,-0.1735,-0.1739,-0.1772,-0.1753,-0.1743,-0.1652,-0.1703,-0.1588,-0.1567,-0.171,-0.1712,-0.1692,-0.1692,-0.1691,-0.1691,-0.1691,-0.1692,0,-0.0956,-0.103,-0.109,-0.1225,-0.1272,-0.1326,-0.1456,-0.1496,-0.159,-0.1626,-0.1646,-0.1709,-0.1682,-0.1688,-0.1663,-0.1617,-0.1564,-0.1517,-0.1666,-0.1657,-0.1458,-0.1461,-0.1372,-0.1367,-0.1364,-0.1361,-0.1358,0,-0.0906,-0.0921,-0.1056,-0.1102,-0.1169,-0.1265,-0.1325,-0.1454,-0.149,-0.1581,-0.1578,-0.1589,-0.161,-0.1474,-0.1513,-0.146,-0.1445,-0.142,-0.1439,-0.1432,-0.1421,-0.143,-0.1438,-0.1352,-0.1351,-0.135,-0.1349,0,-0.0816,-0.0865,-0.0919,-0.1007,-0.1084,-0.1158,-0.1253,-0.1261,-0.1387,-0.1478,-0.1453,-0.1435,-0.1398,-0.1379,-0.1341,-0.1313,-0.1443,-0.1381,-0.1389,-0.1407,-0.1407,-0.1402,-0.1414,-0.1336,-0.1338,-0.1339,-0.134,0,-0.0746,-0.0763,-0.0828,-0.0906,-0.0996,-0.1032,-0.1097,-0.1142,-0.1187,-0.1301,-0.1281,-0.1308,-0.1365,-0.1299,-0.127,-0.1227,-0.1214,-0.1191,-0.1209,-0.1224,-0.1196,-0.1176,-0.0997,0,0,0,0,0,-0.0666,-0.0669,-0.0728,-0.0801,-0.0888,-0.0936,-0.1043,-0.1108,-0.1217,-0.1158,-0.1217,-0.118,-0.1139,-0.1162,-0.1082,-0.1206,-0.122,-0.1112,-0.1205,-0.1264,-0.1279,-0.1261,0,0,0,0,0,0,-0.0605,-0.0637,-0.0677,-0.0699,-0.073,-0.0805,-0.0863,-0.0943,-0.0923,-0.1034,-0.1007,-0.1101,-0.1067,-0.1141,-0.1048,-0.1056,-0.1091,-0.1144,-0.1141,-0.1255,-0.1269,-0.1281,-0.1268,0,0,0,0,0]},{"header":{"parameterUnit":"m.s-1","parameterCategory":2,"la1":30.2991,"la2":30.254,"lo1":-89.0895,"lo2":-89.0444,"dy":0.0017,"dx":0.0017,"nx":28,"ny":28,"refTime":"2024-06-19T21:00:00:Z","depth":"4","parameterNumber":3,"parameterNumberName":"V-component_of_CURRENTS"},"data":[0,0,0,0,0,0,0,0,0,0,0,0,0,0,0,0,0,0,0,0,0,0,0,0,0,0,0,0,0,0,0,0,0,0,0,0,0,0,0,0,0,0,0,0,0,0,0,0,0,0,0,0,0,0,0,0,0,0,-0.0272,-0.0271,0,-0.0187,-0.0186,-0.0185,-0.0133,-0.0133,-0.0133,-0.0132,-0.0032,-0.003,-0.0027,0,0,0,0,0,0,0,0,0,0,0,0,0,-0.034,-0.0339,-0.0272,-0.0271,-0.027,-0.0187,-0.0186,-0.0185,-0.0133,-0.0133,-0.0133,-0.0132,-0.0033,-0.003,-0.0027,0,0,0,0,0,0,0,0,0,0,0,0,0,-0.0287,-0.0339,-0.0272,-0.0235,-0.0231,-0.0188,-0.0186,-0.0184,-0.0133,-0.0133,-0.0133,-0.0132,-0.0034,-0.003,-0.0027,-0.0007,0,0,-0.0015,-0.0013,0,0,0,0,0,0,0,0,-0.029,-0.0284,-0.0242,-0.0238,-0.0233,-0.0172,-0.0173,-0.0125,-0.0133,-0.0169,-0.0132,-0.0132,-0.0079,-0.0071,-0.0054,-0.0002,0.0002,-0.0015,-0.0012,-0.0011,-0.001,0,0,0,0,0,0,0,-0.0294,-0.0288,-0.0237,-0.0241,-0.0236,-0.0206,-0.0199,-0.0164,-0.0124,-0.0166,-0.0162,-0.0155,-0.0076,-0.0058,-0.0051,0.0003,-0.0015,-0.0011,-0.0009,-0.0007,0.01,0.0101,0,0,0,0,0,0,-0.031,-0.0291,-0.024,-0.0235,-0.0264,-0.0206,-0.0197,-0.019,-0.0125,-0.0115,-0.0155,-0.0153,-0.0064,-0.0055,-0.0047,-0.0004,-0.0011,-0.0007,-0.0005,0.01,0.01,0.0101,0,0,0,0,0,0,-0.0312,-0.0306,-0.0243,-0.0262,-0.0252,-0.0205,-0.0198,-0.0189,-0.0174,-0.0118,-0.0107,-0.015,-0.0064,-0.0053,-0.0015,-0.0001,-0.0005,-0.0002,0.0099,0.01,0.0101,0.0071,0,0,0,0,0,0,-0.0314,-0.0308,-0.0314,-0.0263,-0.0252,-0.0221,-0.0198,-0.0188,-0.0171,-0.0167,-0.011,-0.01,-0.0063,-0.0021,-0.0011,0.0004,0.0001,0.0098,0.0099,0.01,0.0071,0.0071,0.007,0,0,0,0,0,-0.0317,-0.0322,-0.0314,-0.0308,-0.026,-0.0222,-0.0213,-0.0178,-0.0171,-0.0164,-0.0124,-0.0102,-0.0007,-0.0017,-0.0006,0.0011,0.0098,0.0099,0.01,0.0071,0.0071,0.007,0,0,0,0,0,0,-0.0353,-0.0316,-0.0306,-0.03,-0.0268,-0.0213,-0.0207,-0.0185,-0.0149,-0.0147,-0.0097,-0.0084,-0.0046,-0.0015,-0.0029,0.0045,0.005,0.0054,0.0025,0.0024,0.0024,0.0014,0.0004,0,0,0,0,0,-0.0366,-0.0362,-0.0319,-0.0316,-0.0303,-0.0259,-0.0242,-0.0217,-0.0177,-0.0161,-0.0117,-0.0072,-0.0031,-0.0004,0.0035,0.0074,0.0103,0.0093,0.0093,0.0092,0.0092,0.015,0.0155,0.0105,0.0105,0.0105,0,0,-0.0381,-0.036,-0.0359,-0.0324,-0.0297,-0.0277,-0.0248,-0.0224,-0.0203,-0.0156,-0.0116,-0.0077,-0.0024,0.0022,0.0043,0.005,0.012,0.0094,0.0093,0.0094,0.0152,0.0157,0.0161,0.0106,0.0106,0.0106,0,0,-0.0405,-0.0389,-0.0394,-0.0366,-0.0331,-0.0298,-0.0296,-0.0243,-0.0216,-0.0177,-0.0135,-0.0087,-0.0028,0.0025,0.0055,0.0075,0.0109,0.0085,0.0085,0.014,0.0145,0.0149,0.0183,0.0191,0.0093,0.0093,0.0093,0,-0.0425,-0.042,-0.0389,-0.0378,-0.0358,-0.0312,-0.0303,-0.0267,-0.0206,-0.018,-0.0171,-0.0069,-0.0022,0.0043,0.0056,0.0075,0.0101,0.008,0.0139,0.0144,0.0149,0.0183,0.0192,0.0092,0.0092,0.0092,0.0092,0,-0.0444,-0.0438,-0.0435,-0.0408,-0.0385,-0.0366,-0.0314,-0.0285,-0.0252,-0.0207,-0.0145,-0.0078,-0.0016,0.0012,0.0042,0.0104,0.0108,0.0124,0.0137,0.0152,0.0187,0.0197,0.009,0.009,0.0091,0.0091,0,0,-0.0482,-0.0457,-0.0455,-0.0449,-0.0396,-0.0378,-0.0344,-0.0292,-0.0268,-0.0203,-0.016,-0.0075,-0.0038,-0.0001,0.0049,0.0108,0.0168,0.0129,0.0133,0.0155,0.0275,0.0243,0.025,0.0191,0.0193,0.0195,0.0281,0,-0.0502,-0.0507,-0.0478,-0.0468,-0.046,-0.0406,-0.0376,-0.0324,-0.0272,-0.0217,-0.0136,-0.008,-0.0043,-0.0013,0.0052,0.0139,0.0193,0.0142,0.0263,0.0267,0.0231,0.0261,0.02,0.0288,0.0291,0.0292,0.0294,0,-0.052,-0.0521,-0.0528,-0.0498,-0.0489,-0.0477,-0.0424,-0.0389,-0.03,-0.0257,-0.0186,-0.0122,-0.0024,-0.0001,0.0151,0.0114,0.0189,0.0255,0.026,0.0247,0.0253,0.0275,0.0311,0.031,0.0309,0.0308,0.0306,0,-0.0558,-0.0547,-0.0559,-0.0546,-0.0509,-0.0503,-0.0481,-0.0408,-0.0375,-0.0285,-0.0249,-0.0134,-0.0073,0.0038,0.0172,0.0165,0.0333,0.0341,0.0381,0.0378,0.0393,0.0388,0.0445,0.0444,0.0444,0.0444,0.0444,0,-0.0571,-0.0579,-0.0586,-0.0586,-0.0596,-0.0554,-0.0541,-0.0495,-0.0428,-0.0383,-0.028,-0.0219,-0.0059,0.0056,0.0169,0.0301,0.0331,0.0385,0.0405,0.0377,0.0369,0.0399,0.0393,0.0447,0.0447,0.0446,0.0445,0,-0.0592,-0.0598,-0.0613,-0.0609,-0.0613,-0.062,-0.0594,-0.0574,-0.0509,-0.0449,-0.0422,-0.0273,-0.0123,0.0031,0.0223,0.0289,0.0424,0.0462,0.0411,0.0426,0.043,0.0421,0.0511,0.051,0.051,0.051,0.051,0,-0.0593,-0.061,-0.0642,-0.0662,-0.0664,-0.0674,-0.0672,-0.0622,-0.0592,-0.0476,-0.0443,-0.0294,-0.0183,0.0067,0.0216,0.0414,0.0439,0.049,0.0471,0.0429,0.044,0.0431,0.0423,0.0509,0.0509,0.0509,0.0509,0,-0.0591,-0.0618,-0.0632,-0.0688,-0.0711,-0.0724,-0.0718,-0.0707,-0.0631,-0.058,-0.0437,-0.0294,-0.0127,0.0064,0.0215,0.0358,0.0448,0.0488,0.049,0.0472,0.0428,0.0438,0.043,0.0508,0.0509,0.0509,0.0509,0,-0.0582,-0.0606,-0.0645,-0.0685,-0.0728,-0.075,-0.0752,-0.0699,-0.066,-0.0532,-0.0488,-0.0289,-0.0169,0.0035,0.018,0.031,0.0336,0.0362,0.037,0.0373,0.0301,0.0224,0.0265,0,0,0,0,0,-0.0554,-0.0584,-0.0634,-0.0678,-0.073,-0.0751,-0.0759,-0.0748,-0.0692,-0.0595,-0.0535,-0.037,-0.0133,-0.002,0.0106,0.0149,0.0334,0.0295,0.0361,0.0504,0.0505,0.0441,0,0,0,0,0,0,-0.0532,-0.058,-0.0621,-0.0668,-0.0699,-0.0742,-0.0752,-0.0724,-0.0657,-0.0583,-0.0447,-0.0356,-0.0122,-0.0194,0.011,0.015,0.0201,0.0417,0.0418,0.0503,0.0504,0.0505,0.0439,0,0,0,0,0]}]]